This is the latest recevied weather packets stored in our database for station/object KF5JED-13. If no packets are shown the sender has not sent any weather packets the latest 10 day(s).
| Time | Temp. | Humidity | Pressure | Rain* | Wind** | Luminosity | Snow |
|---|---|---|---|---|---|---|---|
| 1778198954 | 23.89° C | 25% | 1013 hPa | 0 mm | - | 152 W/m² | - |
| 1778198650 | 24.44° C | 24% | 1013.1 hPa | 0 mm | - | 164 W/m² | - |
| 1778198347 | 24.44° C | 23% | 1013.1 hPa | 0 mm | - | 174 W/m² | - |
| 1778198044 | 23.89° C | 24% | 1013.3 hPa | 0 mm | - | 190 W/m² | - |
| 1778197741 | 24.44° C | 24% | 1013 hPa | 0 mm | - | 174 W/m² | - |
| 1778197438 | 24.44° C | 24% | 1013 hPa | 0 mm | - | 223 W/m² | - |
| 1778197134 | 24.44° C | 23% | 1012.9 hPa | 0 mm | - | 241 W/m² | - |
| 1778196832 | 24.44° C | 23% | 1013 hPa | 0 mm | - | 259 W/m² | - |
| 1778196530 | 24.44° C | 23% | 1012.9 hPa | 0 mm | - | 279 W/m² | - |
| 1778196226 | 24.44° C | 23% | 1013.1 hPa | 0 mm | - | 298 W/m² | - |
| 1778195924 | 24.44° C | 23% | 1013.2 hPa | 0 mm | - | 316 W/m² | - |
| 1778195620 | 25° C | 24% | 1013.2 hPa | 0 mm | - | 332 W/m² | - |
| 1778195316 | 25° C | 23% | 1013.2 hPa | 0 mm | - | 350 W/m² | - |
| 1778195014 | 24.44° C | 23% | 1013.3 hPa | 0 mm | - | 366 W/m² | - |
| 1778194713 | 23.89° C | 24% | 1013.3 hPa | 0 mm | - | 381 W/m² | - |
| 1778194409 | 24.44° C | 24% | 1013.5 hPa | 0 mm | - | 400 W/m² | - |
| 1778194106 | 24.44° C | 25% | 1013.5 hPa | 0 mm | - | 422 W/m² | - |
| 1778193803 | 24.44° C | 23% | 1013.5 hPa | 0 mm | - | 441 W/m² | - |
| 1778193499 | 24.44° C | 24% | 1013.5 hPa | 0 mm | - | 459 W/m² | - |
| 1778193195 | 24.44° C | 24% | 1013.7 hPa | 0 mm | - | 476 W/m² | - |
| 1778192893 | 24.44° C | 24% | 1013.6 hPa | 0 mm | - | 491 W/m² | - |
| 1778192589 | 24.44° C | 24% | 1013.7 hPa | 0 mm | - | 506 W/m² | - |
| 1778192286 | 24.44° C | 24% | 1013.7 hPa | 0 mm | - | 517 W/m² | - |
| 1778191982 | 23.89° C | 24% | 1013.8 hPa | 0 mm | - | 531 W/m² | - |
| 1778191678 | 23.89° C | 25% | 1013.8 hPa | 0 mm | - | 549 W/m² | - |
* Rain latest hour (hover to see other rain measurements)
** Current wind speed in m/s (hover to see current wind gust speed)